TimeCDT,TemperatureF,Dew PointF,Humidity,Sea Level PressureIn,VisibilityMPH,Wind Direction,Wind SpeedMPH,Gust SpeedMPH,PrecipitationIn,Events,Conditions,WindDirDegrees,DateUTC
12:35 AM,60.8,55.4,82,29.82,10.0,Calm,Calm,-,N/A,,Clear,0,2012-10-21 05:35:00
12:55 AM,60.8,55.4,82,29.82,10.0,Calm,Calm,-,N/A,,Clear,0,2012-10-21 05:55:00
1:15 AM,60.8,55.4,82,29.82,10.0,Calm,Calm,-,N/A,,Clear,0,2012-10-21 06:15:00
1:35 AM,60.8,55.4,82,29.83,10.0,Calm,Calm,-,N/A,,Clear,0,2012-10-21 06:35:00
1:55 AM,60.8,55.4,82,29.82,10.0,SW,3.5,-,N/A,,Clear,220,2012-10-21 06:55:00
2:15 AM,64.4,57.2,77,29.82,10.0,SW,4.6,-,N/A,,Clear,220,2012-10-21 07:15:00
2:35 AM,68.0,59.0,73,29.82,10.0,SSW,5.8,-,N/A,,Clear,210,2012-10-21 07:35:00
2:55 AM,68.0,59.0,73,29.83,10.0,SSW,4.6,-,N/A,,Clear,210,2012-10-21 07:55:00
3:15 AM,68.0,60.8,78,29.83,10.0,SSW,6.9,-,N/A,,Clear,200,2012-10-21 08:15:00
3:35 AM,69.8,62.6,78,29.83,10.0,South,6.9,-,N/A,,Clear,190,2012-10-21 08:35:00
3:55 AM,71.6,62.6,73,29.83,10.0,South,8.1,-,N/A,,Clear,190,2012-10-21 08:55:00
4:15 AM,71.6,64.4,78,29.83,10.0,South,9.2,-,N/A,,Clear,190,2012-10-21 09:15:00
4:35 AM,71.6,64.4,78,29.83,10.0,South,3.5,-,N/A,,Clear,180,2012-10-21 09:35:00
5:15 AM,71.6,64.4,78,29.84,10.0,South,8.1,-,N/A,,Scattered Clouds,180,2012-10-21 10:15:00
5:55 AM,71.6,66.2,83,29.85,10.0,South,8.1,-,N/A,,Scattered Clouds,180,2012-10-21 10:55:00
6:15 AM,71.6,68.0,88,29.85,10.0,South,8.1,-,N/A,,Scattered Clouds,180,2012-10-21 11:15:00
6:35 AM,71.6,68.0,88,29.85,10.0,South,6.9,-,N/A,,Scattered Clouds,180,2012-10-21 11:35:00
6:55 AM,71.6,68.0,88,29.86,10.0,South,6.9,-,N/A,,Scattered Clouds,180,2012-10-21 11:55:00
7:15 AM,71.6,68.0,88,29.86,10.0,SSW,6.9,-,N/A,,Scattered Clouds,200,2012-10-21 12:15:00
7:35 AM,69.8,66.2,88,29.87,10.0,SSW,4.6,-,N/A,,Clear,200,2012-10-21 12:35:00
7:55 AM,71.6,68.0,88,29.88,10.0,SSW,3.5,-,N/A,,Clear,200,2012-10-21 12:55:00
8:15 AM,71.6,68.0,88,29.88,10.0,Calm,Calm,-,N/A,,Scattered Clouds,0,2012-10-21 13:15:00
8:35 AM,71.6,68.0,88,29.89,10.0,SSW,8.1,-,N/A,,Scattered Clouds,200,2012-10-21 13:35:00
8:55 AM,71.6,68.0,88,29.89,10.0,South,9.2,-,N/A,,Clear,180,2012-10-21 13:55:00
9:15 AM,73.4,68.0,83,29.90,10.0,South,11.5,-,N/A,,Clear,190,2012-10-21 14:15:00
9:35 AM,73.4,68.0,83,29.90,10.0,South,11.5,18.4,N/A,,Clear,190,2012-10-21 14:35:00
9:55 AM,75.2,68.0,78,29.90,10.0,South,11.5,20.7,N/A,,Clear,190,2012-10-21 14:55:00
10:15 AM,77.0,69.8,78,29.91,10.0,South,11.5,-,N/A,,Clear,170,2012-10-21 15:15:00
10:35 AM,77.0,68.0,74,29.91,10.0,South,10.4,21.9,N/A,,Scattered Clouds,180,2012-10-21 15:35:00
10:55 AM,78.8,69.8,74,29.91,10.0,South,15.0,20.7,N/A,,Scattered Clouds,190,2012-10-21 15:55:00
11:15 AM,78.8,69.8,74,29.90,10.0,South,15.0,21.9,N/A,,Clear,190,2012-10-21 16:15:00
11:35 AM,78.8,69.8,74,29.91,10.0,South,17.3,23.0,N/A,,Mostly Cloudy,180,2012-10-21 16:35:00
11:55 AM,78.8,69.8,74,29.91,10.0,SSW,15.0,19.6,N/A,,Overcast,200,2012-10-21 16:55:00
12:15 PM,78.8,69.8,74,29.91,10.0,South,11.5,19.6,N/A,,Overcast,180,2012-10-21 17:15:00
12:35 PM,77.0,69.8,78,29.90,10.0,South,15.0,21.9,N/A,,Overcast,190,2012-10-21 17:35:00
12:55 PM,77.0,69.8,78,29.90,10.0,South,15.0,20.7,N/A,,Overcast,180,2012-10-21 17:55:00
1:15 PM,78.8,69.8,74,29.89,10.0,South,19.6,27.6,N/A,,Overcast,180,2012-10-21 18:15:00
1:35 PM,78.8,69.8,74,29.88,10.0,South,17.3,23.0,N/A,,Overcast,180,2012-10-21 18:35:00
1:55 PM,80.6,71.6,74,29.87,10.0,South,16.1,24.2,N/A,,Scattered Clouds,190,2012-10-21 18:55:00
2:15 PM,80.6,69.8,70,29.86,10.0,South,13.8,20.7,N/A,,Mostly Cloudy,190,2012-10-21 19:15:00
2:35 PM,80.6,69.8,70,29.86,10.0,South,12.7,24.2,N/A,,Mostly Cloudy,170,2012-10-21 19:35:00
2:55 PM,80.6,69.8,70,29.85,10.0,South,13.8,20.7,N/A,,Mostly Cloudy,170,2012-10-21 19:55:00
3:15 PM,80.6,69.8,70,29.85,10.0,South,15.0,20.7,N/A,,Mostly Cloudy,190,2012-10-21 20:15:00
3:35 PM,80.6,69.8,70,29.84,10.0,South,17.3,20.7,N/A,,Scattered Clouds,170,2012-10-21 20:35:00
3:55 PM,80.6,69.8,70,29.84,10.0,South,12.7,23.0,N/A,,Scattered Clouds,180,2012-10-21 20:55:00
4:15 PM,80.6,69.8,70,29.84,10.0,South,15.0,21.9,N/A,,Clear,180,2012-10-21 21:15:00
4:35 PM,80.6,69.8,70,29.84,10.0,South,9.2,19.6,N/A,,Clear,170,2012-10-21 21:35:00
4:55 PM,80.6,71.6,74,29.84,10.0,South,10.4,-,N/A,,Clear,170,2012-10-21 21:55:00
5:15 PM,80.6,71.6,74,29.84,10.0,South,10.4,17.3,N/A,,Scattered Clouds,180,2012-10-21 22:15:00
5:35 PM,78.8,69.8,74,29.84,10.0,South,9.2,-,N/A,,Clear,170,2012-10-21 22:35:00
5:55 PM,80.6,69.8,70,29.84,10.0,South,11.5,18.4,N/A,,Clear,180,2012-10-21 22:55:00
6:15 PM,78.8,69.8,74,29.84,10.0,South,6.9,-,N/A,,Clear,170,2012-10-21 23:15:00
6:35 PM,78.8,69.8,74,29.84,10.0,South,6.9,-,N/A,,Clear,170,2012-10-21 23:35:00
6:55 PM,78.8,69.8,74,29.84,10.0,South,6.9,-,N/A,,Clear,180,2012-10-21 23:55:00
7:15 PM,77.0,69.8,78,29.85,10.0,South,6.9,-,N/A,,Clear,180,2012-10-22 00:15:00
7:35 PM,78.8,69.8,74,29.85,10.0,South,4.6,-,N/A,,Clear,180,2012-10-22 00:35:00
7:55 PM,77.0,69.8,78,29.86,10.0,Calm,Calm,-,N/A,,Scattered Clouds,0,2012-10-22 00:55:00
8:15 PM,77.0,69.8,78,29.87,10.0,Calm,Calm,-,N/A,,Mostly Cloudy,0,2012-10-22 01:15:00
8:35 PM,77.0,69.8,78,29.87,10.0,South,4.6,-,N/A,,Overcast,180,2012-10-22 01:35:00
8:55 PM,78.8,69.8,74,29.88,10.0,SSE,6.9,-,N/A,,Mostly Cloudy,160,2012-10-22 01:55:00
9:15 PM,78.8,69.8,74,29.88,10.0,SSE,5.8,-,N/A,,Mostly Cloudy,160,2012-10-22 02:15:00
9:35 PM,78.8,69.8,74,29.88,10.0,South,3.5,-,N/A,,Scattered Clouds,170,2012-10-22 02:35:00
9:55 PM,77.0,69.8,78,29.89,10.0,South,5.8,-,N/A,,Scattered Clouds,180,2012-10-22 02:55:00
10:15 PM,78.8,69.8,74,29.90,10.0,South,8.1,-,N/A,,Clear,170,2012-10-22 03:15:00
10:35 PM,78.8,69.8,74,29.90,10.0,South,8.1,-,N/A,,Clear,180,2012-10-22 03:35:00
10:55 PM,78.8,69.8,74,29.90,10.0,South,8.1,-,N/A,,Clear,180,2012-10-22 03:55:00
11:35 PM,78.8,69.8,74,29.90,10.0,South,6.9,-,N/A,,Clear,170,2012-10-22 04:35:00
11:55 PM,77.0,69.8,78,29.90,10.0,South,5.8,-,N/A,,Clear,170,2012-10-22 04:55:00